Hourly Data Report for May 23, 2004

SHERBROOKE A
QUEBEC

45°26'00.000" N
71°41'00.000" W
241.40 m
7028124
71610
YSC

Download Data

Hourly Data (May 2004)
Hourly Data Report for May 23, 2004
TIME
LST
Temp Definition
°C
Dew Point Definition
°C
Rel Hum Definition
%
Precip. Amount Definition
mm

Wind Dir Definition
10's deg

Wind Spd Definition
km/h
Visibility Definition
km
Stn Press Definition
kPa
Hmdx Definition


Wind Chill Definition


Weather Definition


00:00 10.0 7.0 82   17 7 15.0 98.37     Rain
01:00 9.6 7.7 88   10 7 15.0 98.25     Rain
02:00 9.1 7.5 90   8 6 15.0 98.11     Rain
03:00 9.2 8.0 92     0 15.0 98.07     Rain
04:00 9.1 8.0 93   3 4 15.0 98.08     Rain
05:00 9.2 8.2 93     0 5.6 98.17     Rain
06:00 9.7 8.7 93   8 6 6.4 98.12     Rain
07:00 10.3 9.5 95   5 6 3.2 98.19     Drizzle, Fog
08:00 10.9 9.8 93   8 6 8.0 98.20     Rain, Fog
09:00 11.4 10.1 92   3 7 19.3 98.27     Drizzle
10:00 12.4 10.5 88   4 4 24.1 98.33     Cloudy
11:00 14.2 10.8 80   9 7 24.1 98.30     Mostly Cloudy
12:00 15.9 10.9 72   8 9 24.1 98.26     Mostly Cloudy
13:00 17.5 10.0 61   9 4 24.1 98.28     Mostly Cloudy
14:00 18.3 11.4 64   27 11 24.1 98.29     Mostly Cloudy
15:00 17.7 9.6 59   28 7 24.1 98.31     Mostly Cloudy
16:00 18.1 9.3 56   24 7 24.1 98.34     Mostly Cloudy
17:00 19.0 9.2 53   24 7 15.0 98.35      
18:00 17.3 9.1 59   21 6 15.0 98.38      
19:00 14.3 6.8 61   29 4 15.0 98.38      
20:00 12.8 7.6 71   14 6 15.0 98.37      
21:00 12.0 8.6 80   6 4 15.0 98.41      
22:00 12.8 6.7 66   8 9 15.0 98.36      
23:00 12.7 6.9 68   5 6 15.0 98.45      

Notes on Data Quality.

Legend

  • E = Estimated
  • M = Missing
  • NA = Not Available*
  • [empty] = Indicates an unobserved value
Date modified: